TimeCST,TemperatureF,Dew PointF,Humidity,Sea Level PressureIn,VisibilityMPH,Wind Direction,Wind SpeedMPH,Gust SpeedMPH,PrecipitationIn,Events,Conditions,WindDirDegrees,DateUTC
12:21 AM,26.6,23.0,86,29.98,3.0,NNW,4.6,-,0.00,Snow,Light Snow,340,2012-12-08 06:21:00
12:36 AM,24.8,23.0,93,29.98,2.0,Calm,Calm,-,0.00,Snow,Light Snow,0,2012-12-08 06:36:00
12:46 AM,24.8,23.0,93,29.98,1.8,NW,3.5,-,0.00,Snow,Light Snow,320,2012-12-08 06:46:00
12:54 AM,25.0,23.0,92,30.03,2.0,NW,3.5,-,0.00,Snow,Light Snow,320,2012-12-08 06:54:00
1:18 AM,24.8,23.0,93,29.97,2.5,Calm,Calm,-,0.00,Snow,Light Snow,0,2012-12-08 07:18:00
1:27 AM,24.8,23.0,93,29.97,2.0,North,3.5,-,0.00,Snow,Light Snow,350,2012-12-08 07:27:00
1:54 AM,25.0,23.0,92,30.03,2.5,Calm,Calm,-,0.00,Snow,Light Snow,0,2012-12-08 07:54:00
2:12 AM,24.8,23.0,93,29.98,2.0,NNW,3.5,-,0.00,Snow,Light Snow,330,2012-12-08 08:12:00
2:22 AM,24.8,23.0,93,29.98,3.0,NNW,3.5,-,0.00,Snow,Light Snow,340,2012-12-08 08:22:00
2:46 AM,24.8,23.0,93,29.98,2.5,Calm,Calm,-,0.00,Snow,Light Snow,0,2012-12-08 08:46:00
2:54 AM,25.0,23.0,92,30.03,2.0,Calm,Calm,-,0.00,Snow,Light Snow,0,2012-12-08 08:54:00
2:59 AM,24.8,23.0,93,29.98,2.0,Calm,Calm,-,0.00,Snow,Light Snow,0,2012-12-08 08:59:00
3:12 AM,24.8,23.0,93,29.97,2.0,NW,3.5,-,0.00,Snow,Light Snow,320,2012-12-08 09:12:00
3:44 AM,24.8,23.0,93,29.97,3.0,NW,4.6,-,0.00,Snow,Light Snow,320,2012-12-08 09:44:00
3:51 AM,24.8,23.0,93,29.97,3.0,NNW,3.5,-,0.00,Snow,Light Snow,330,2012-12-08 09:51:00
3:54 AM,25.0,23.0,92,30.03,3.0,NNW,3.5,-,0.00,Snow,Light Snow,330,2012-12-08 09:54:00
4:54 AM,23.0,21.0,92,30.03,10.0,NNW,3.5,-,0.00,,Overcast,330,2012-12-08 10:54:00
5:54 AM,19.9,19.0,96,30.04,10.0,Calm,Calm,-,N/A,,Scattered Clouds,0,2012-12-08 11:54:00
6:54 AM,14.0,12.9,95,30.05,8.0,Calm,Calm,-,N/A,,Clear,0,2012-12-08 12:54:00
7:12 AM,15.8,15.8,100,29.99,1.8,Calm,Calm,-,N/A,,Clear,0,2012-12-08 13:12:00
7:22 AM,17.6,15.8,93,29.99,0.5,Calm,Calm,-,N/A,Fog,Light Freezing Fog,0,2012-12-08 13:22:00
7:28 AM,15.8,12.2,86,30.00,2.0,Calm,Calm,-,N/A,,Clear,0,2012-12-08 13:28:00
7:36 AM,12.2,10.4,92,30.00,9.0,Calm,Calm,-,N/A,,Clear,0,2012-12-08 13:36:00
7:54 AM,12.9,12.0,96,30.07,7.0,Calm,Calm,-,N/A,,Clear,0,2012-12-08 13:54:00
8:54 AM,21.9,19.9,92,30.07,10.0,Calm,Calm,-,N/A,,Clear,0,2012-12-08 14:54:00
9:54 AM,27.0,21.9,81,30.08,10.0,NNW,3.5,-,N/A,,Clear,330,2012-12-08 15:54:00
10:54 AM,30.0,19.9,66,30.08,10.0,North,8.1,-,N/A,,Clear,350,2012-12-08 16:54:00
11:54 AM,30.9,19.9,64,30.07,10.0,NW,11.5,-,0.00,,Clear,320,2012-12-08 17:54:00
12:10 PM,32.0,21.2,64,30.02,10.0,NNW,9.2,-,0.00,,Mostly Cloudy,330,2012-12-08 18:10:00
12:33 PM,30.2,19.4,64,30.02,10.0,NW,3.5,-,0.00,,Scattered Clouds,320,2012-12-08 18:33:00
12:54 PM,30.9,18.0,59,30.08,10.0,NNW,8.1,-,0.00,,Mostly Cloudy,330,2012-12-08 18:54:00
1:54 PM,30.9,19.0,61,30.09,10.0,NNW,8.1,-,N/A,,Overcast,330,2012-12-08 19:54:00
2:54 PM,30.0,18.0,61,30.08,10.0,NNW,6.9,-,N/A,,Overcast,330,2012-12-08 20:54:00
3:54 PM,30.0,18.0,61,30.10,10.0,Calm,Calm,-,N/A,,Overcast,0,2012-12-08 21:54:00
4:54 PM,28.9,19.9,69,30.15,10.0,Calm,Calm,-,N/A,,Overcast,0,2012-12-08 22:54:00
5:54 PM,24.1,18.0,77,30.16,10.0,Calm,Calm,-,N/A,,Clear,0,2012-12-08 23:54:00
7:54 PM,17.1,14.0,88,30.19,10.0,Calm,Calm,-,N/A,,Clear,0,2012-12-09 01:54:00
8:54 PM,16.0,12.9,88,30.19,10.0,Calm,Calm,-,N/A,,Clear,0,2012-12-09 02:54:00
9:54 PM,15.1,12.9,91,30.18,9.0,Calm,Calm,-,N/A,,Clear,0,2012-12-09 03:54:00
10:54 PM,15.1,12.0,88,30.19,10.0,Calm,Calm,-,N/A,,Clear,0,2012-12-09 04:54:00
11:54 PM,14.0,10.9,88,30.22,10.0,Calm,Calm,-,N/A,,Clear,0,2012-12-09 05:54:00